| time (UTC) | temp F | wind direction | speed knots | gust knots | rain 1hr in | rain 24hr in | rain mn in | humidity % | barometer mb |
| 20260505030923 | 65 | 55 | 0.0 | 0.9 | 0.00 | 0.00 | 0.00 | 58 | 1011.6 |
| 20260505030419 | 65 | 55 | 0.0 | 0.9 | 0.00 | 0.00 | 0.00 | 58 | 1011.4 |
| 20260505025915 | 65 | 55 | 0.0 | 0.9 | 0.00 | 0.00 | 0.00 | 57 | 1011.5 |
| 20260505025412 | 65 | 55 | 0.0 | 0.9 | 0.00 | 0.00 | 0.00 | 56 | 1011.7 |
| 20260505024911 | 64 | 55 | 0.0 | 1.7 | 0.00 | 0.00 | 0.00 | 56 | 1011.7 |
| 20260505024408 | 64 | 54 | 0.0 | 0.9 | 0.00 | 0.00 | 0.00 | 57 | 1011.5 |
| 20260505023905 | 63 | 52 | 0.9 | 0.9 | 0.00 | 0.00 | 0.00 | 64 | 1011.6 |
| 20260505023402 | 63 | 53 | 0.0 | 1.7 | 0.00 | 0.00 | 0.00 | 66 | 1011.7 |
| 20260505022859 | 64 | 32 | 0.0 | 0.0 | 0.00 | 0.00 | 0.00 | 68 | 1011.5 |
| 20260505022356 | 64 | 32 | 0.0 | 0.0 | 0.00 | 0.00 | 0.00 | 67 | 1011.4 |
| 20260505021854 | 65 | 32 | 0.0 | 0.0 | 0.00 | 0.00 | 0.00 | 66 | 1011.4 |
| 20260505021350 | 65 | 32 | 0.0 | 0.9 | 0.00 | 0.00 | 0.00 | 65 | 1011.2 |
| 20260505020846 | 66 | 32 | 0.0 | 0.0 | 0.00 | 0.00 | 0.00 | 59 | 1011.1 |
| 20260505020341 | 65 | 32 | 0.0 | 0.0 | 0.00 | 0.00 | 0.00 | 51 | 1011.2 |
| 20260505015839 | 65 | 32 | 0.0 | 0.0 | 0.00 | 0.00 | 0.00 | 51 | 1011.1 |
| 20260505015336 | 65 | 32 | 0.0 | 0.0 | 0.00 | 0.00 | 0.00 | 52 | 1011.0 |
| 20260505014833 | 66 | 32 | 0.0 | 0.0 | 0.00 | 0.00 | 0.00 | 50 | 1011.1 |
| 20260505014330 | 66 | 32 | 0.0 | 0.0 | 0.00 | 0.00 | 0.00 | 49 | 1011.1 |
| 20260505013826 | 67 | 32 | 0.0 | 0.0 | 0.00 | 0.00 | 0.00 | 49 | 1010.9 |
| 20260505013324 | 67 | 32 | 0.0 | 0.0 | 0.00 | 0.00 | 0.00 | 48 | 1010.9 |
| 20260505012822 | 68 | 32 | 0.0 | 0.0 | 0.00 | 0.00 | 0.00 | 47 | 1010.9 |
| 20260505012319 | 68 | 32 | 0.0 | 0.0 | 0.00 | 0.00 | 0.00 | 46 | 1010.9 |
| 20260505011815 | 69 | 32 | 0.0 | 0.0 | 0.00 | 0.00 | 0.00 | 46 | 1010.7 |
| 20260505011312 | 69 | 32 | 0.0 | 0.0 | 0.00 | 0.00 | 0.00 | 45 | 1010.8 |
| 20260505010808 | 69 | 32 | 0.0 | 0.0 | 0.00 | 0.00 | 0.00 | 45 | 1010.6 |
| 20260505010304 | 69 | 32 | 0.0 | 0.0 | 0.00 | 0.00 | 0.00 | 44 | 1010.7 |
| 20260505005801 | 70 | 30 | 0.0 | 0.0 | 0.00 | 0.00 | 0.00 | 44 | 1010.6 |
| 20260505005258 | 70 | 30 | 0.0 | 0.0 | 0.00 | 0.00 | 0.00 | 43 | 1010.6 |
| 20260505004755 | 70 | 30 | 0.0 | 0.0 | 0.00 | 0.00 | 0.00 | 43 | 1010.4 |
| 20260505004251 | 71 | 30 | 0.0 | 0.0 | 0.00 | 0.00 | 0.00 | 42 | 1010.5 |
| 20260505003748 | 71 | 30 | 0.0 | 0.9 | 0.00 | 0.00 | 0.00 | 42 | 1010.3 |
| 20260505003246 | 71 | 30 | 0.0 | 0.0 | 0.00 | 0.00 | 0.00 | 41 | 1010.4 |
| 20260505002742 | 71 | 30 | 0.0 | 0.9 | 0.00 | 0.00 | 0.00 | 41 | 1010.3 |
| 20260505002240 | 72 | 30 | 0.0 | 0.9 | 0.00 | 0.00 | 0.00 | 40 | 1010.2 |
| 20260505001737 | 72 | 41 | 0.9 | 0.9 | 0.00 | 0.00 | 0.00 | 40 | 1010.1 |
| 20260505001235 | 72 | 41 | 0.0 | 0.9 | 0.00 | 0.00 | 0.00 | 40 | 1010.0 |
| 20260505000731 | 73 | 41 | 0.0 | 0.0 | 0.00 | 0.00 | 0.00 | 39 | 1010.0 |
| 20260505000229 | 73 | 41 | 0.0 | 0.9 | 0.00 | 0.00 | 0.00 | 39 | 1009.9 |
| 20260504235725 | 73 | 41 | 0.0 | 0.0 | 0.00 | 0.00 | 0.00 | 38 | 1010.2 |
| 20260504235221 | 74 | 32 | 0.0 | 0.9 | 0.00 | 0.00 | 0.00 | 38 | 1009.9 |
| 20260504234719 | 74 | 32 | 0.0 | 0.9 | 0.00 | 0.00 | 0.00 | 38 | 1010.1 |
| 20260504234216 | 75 | 25 | 0.0 | 1.7 | 0.00 | 0.00 | 0.00 | 38 | 1009.8 |
| 20260504233712 | 75 | 27 | 0.9 | 2.6 | 0.00 | 0.00 | 0.00 | 36 | 1009.7 |
| 20260504233208 | 75 | 35 | 0.0 | 0.9 | 0.00 | 0.00 | 0.00 | 36 | 1009.6 |
| 20260504232706 | 75 | 37 | 0.9 | 0.9 | 0.00 | 0.00 | 0.00 | 37 | 1009.5 |
| 20260504232203 | 76 | 37 | 0.0 | 0.9 | 0.00 | 0.00 | 0.00 | 36 | 1009.6 |
| 20260504231659 | 76 | 48 | 0.0 | 0.9 | 0.00 | 0.00 | 0.00 | 34 | 1009.5 |
| 20260504231155 | 77 | 62 | 0.9 | 0.9 | 0.00 | 0.00 | 0.00 | 34 | 1009.7 |
| 20260504230652 | 77 | 9 | 0.9 | 1.7 | 0.00 | 0.00 | 0.00 | 34 | 1009.6 |
| 20260504230151 | 77 | 57 | 1.7 | 2.6 | 0.00 | 0.00 | 0.00 | 33 | 1009.5 |
| 20260504225649 | 78 | 43 | 0.0 | 1.7 | 0.00 | 0.00 | 0.00 | 34 | 1009.6 |
| 20260504225144 | 78 | 1 | 1.7 | 4.3 | 0.00 | 0.00 | 0.00 | 34 | 1009.6 |
| 20260504224642 | 78 | 322 | 2.6 | 4.3 | 0.00 | 0.00 | 0.00 | 33 | 1009.8 |
| 20260504224138 | 78 | 344 | 1.7 | 2.6 | 0.00 | 0.00 | 0.00 | 34 | 1009.8 |
| 20260504223636 | 78 | 81 | 0.9 | 1.7 | 0.00 | 0.00 | 0.00 | 33 | 1009.6 |
| 20260504223131 | 78 | 57 | 0.0 | 1.7 | 0.00 | 0.00 | 0.00 | 32 | 1009.8 |
| 20260504222628 | 78 | 133 | 2.6 | 2.6 | 0.00 | 0.00 | 0.00 | 32 | 1009.7 |
| 20260504222125 | 78 | 18 | 1.7 | 4.3 | 0.00 | 0.00 | 0.00 | 31 | 1009.5 |
| 20260504221623 | 78 | 23 | 0.9 | 1.7 | 0.00 | 0.00 | 0.00 | 32 | 1009.7 |
| 20260504221119 | 78 | 307 | 3.5 | 4.3 | 0.00 | 0.00 | 0.00 | 29 | 1009.6 |
| 20260504220616 | 78 | 109 | 1.7 | 1.7 | 0.00 | 0.00 | 0.00 | 29 | 1009.6 |
| 20260504220114 | 79 | 310 | 1.7 | 2.6 | 0.00 | 0.00 | 0.00 | 29 | 1009.9 |
| 20260504215609 | 79 | 340 | 3.5 | 4.3 | 0.00 | 0.00 | 0.00 | 29 | 1009.5 |
| 20260504215107 | 79 | 324 | 1.7 | 4.3 | 0.00 | 0.00 | 0.00 | 29 | 1009.5 |
| 20260504214603 | 79 | 292 | 4.3 | 6.1 | 0.00 | 0.00 | 0.00 | 27 | 1009.8 |
| 20260504214059 | 79 | 222 | 3.5 | 5.2 | 0.00 | 0.00 | 0.00 | 29 | 1009.5 |
| 20260504213556 | 79 | 345 | 2.6 | 5.2 | 0.00 | 0.00 | 0.00 | 29 | 1009.5 |
| 20260504213053 | 79 | 284 | 2.6 | 4.3 | 0.00 | 0.00 | 0.00 | 26 | 1009.6 |
| 20260504212549 | 79 | 300 | 4.3 | 5.2 | 0.00 | 0.00 | 0.00 | 28 | 1009.8 |
| 20260504212046 | 79 | 320 | 2.6 | 2.6 | 0.00 | 0.00 | 0.00 | 25 | 1009.7 |
| 20260504211543 | 79 | 337 | 1.7 | 4.3 | 0.00 | 0.00 | 0.00 | 26 | 1009.7 |
| 20260504211040 | 80 | 51 | 0.0 | 1.7 | 0.00 | 0.00 | 0.00 | 25 | 1009.6 |
| 20260504210537 | 80 | 10 | 2.6 | 2.6 | 0.00 | 0.00 | 0.00 | 27 | 1009.8 |
| 20260504210034 | 80 | 47 | 0.0 | 0.9 | 0.00 | 0.00 | 0.00 | 27 | 1009.7 |
| 20260504205532 | 80 | 45 | 0.0 | 1.7 | 0.00 | 0.00 | 0.00 | 27 | 1009.5 |
| 20260504205030 | 80 | 61 | 0.9 | 1.7 | 0.00 | 0.00 | 0.00 | 27 | 1009.8 |
| 20260504204527 | 79 | 49 | 0.0 | 1.7 | 0.00 | 0.00 | 0.00 | 27 | 1009.5 |
| 20260504204026 | 78 | 102 | 2.6 | 4.3 | 0.00 | 0.00 | 0.00 | 30 | 1009.8 |
| 20260504203523 | 78 | 359 | 1.7 | 5.2 | 0.00 | 0.00 | 0.00 | 30 | 1009.8 |
| 20260504203021 | 78 | 330 | 1.7 | 4.3 | 0.00 | 0.00 | 0.00 | 29 | 1009.9 |
| 20260504202516 | 79 | 290 | 2.6 | 4.3 | 0.00 | 0.00 | 0.00 | 29 | 1009.8 |
| 20260504202013 | 79 | 258 | 4.3 | 6.1 | 0.00 | 0.00 | 0.00 | 28 | 1010.0 |
| 20260504201510 | 80 | 52 | 0.9 | 2.6 | 0.00 | 0.00 | 0.00 | 29 | 1010.2 |
| 20260504201008 | 80 | 344 | 2.6 | 4.3 | 0.00 | 0.00 | 0.00 | 29 | 1010.1 |
| 20260504200504 | 79 | 21 | 1.7 | 1.7 | 0.00 | 0.00 | 0.00 | 29 | 1010.1 |
| 20260504200001 | 79 | 326 | 2.6 | 2.6 | 0.00 | 0.00 | 0.00 | 31 | 1010.2 |
| 20260504195457 | 79 | 36 | 0.0 | 1.7 | 0.00 | 0.00 | 0.00 | 29 | 1010.3 |
| 20260504194954 | 78 | 41 | 0.0 | 1.7 | 0.00 | 0.00 | 0.00 | 29 | 1010.2 |
| 20260504194450 | 79 | 322 | 2.6 | 2.6 | 0.00 | 0.00 | 0.00 | 30 | 1010.5 |
| 20260504193945 | 77 | 15 | 0.9 | 2.6 | 0.00 | 0.00 | 0.00 | 30 | 1010.6 |
| 20260504193443 | 76 | 327 | 2.6 | 6.1 | 0.00 | 0.00 | 0.00 | 31 | 1010.7 |
| 20260504192942 | 78 | 294 | 3.5 | 4.3 | 0.00 | 0.00 | 0.00 | 28 | 1011.0 |
| 20260504192438 | 77 | 60 | 0.9 | 2.6 | 0.00 | 0.00 | 0.00 | 29 | 1010.9 |
| 20260504191938 | 77 | 321 | 2.6 | 7.0 | 0.00 | 0.00 | 0.00 | 31 | 1010.9 |
| 20260504191435 | 78 | 63 | 1.7 | 5.2 | 0.00 | 0.00 | 0.00 | 28 | 1011.0 |
| 20260504190930 | 78 | 58 | 0.9 | 1.7 | 0.00 | 0.00 | 0.00 | 31 | 1011.2 |
| 20260504190426 | 78 | 353 | 2.6 | 2.6 | 0.00 | 0.00 | 0.00 | 31 | 1011.4 |
| 20260504185923 | 77 | 16 | 0.9 | 2.6 | 0.00 | 0.00 | 0.00 | 31 | 1011.2 |
| 20260504185420 | 77 | 196 | 2.6 | 2.6 | 0.00 | 0.00 | 0.00 | 30 | 1011.6 |
| 20260504184916 | 76 | 319 | 2.6 | 2.6 | 0.00 | 0.00 | 0.00 | 38 | 1011.5 |
| 20260504184412 | 76 | 339 | 1.7 | 4.3 | 0.00 | 0.00 | 0.00 | 34 | 1011.7 |
| 20260504183908 | 75 | 331 | 2.6 | 4.3 | 0.00 | 0.00 | 0.00 | 33 | 1011.6 |
| 20260504183405 | 77 | 314 | 2.6 | 2.6 | 0.00 | 0.00 | 0.00 | 34 | 1011.6 |
| 20260504182903 | 75 | 31 | 0.9 | 2.6 | 0.00 | 0.00 | 0.00 | 33 | 1011.7 |
| 20260504182400 | 76 | 306 | 3.5 | 5.2 | 0.00 | 0.00 | 0.00 | 34 | 1011.7 |
| 20260504181856 | 76 | 42 | 0.0 | 1.7 | 0.00 | 0.00 | 0.00 | 32 | 1011.6 |
| 20260504181354 | 75 | 293 | 2.6 | 4.3 | 0.00 | 0.00 | 0.00 | 32 | 1012.0 |
| 20260504180853 | 75 | 80 | 0.9 | 2.6 | 0.00 | 0.00 | 0.00 | 32 | 1011.9 |
| 20260504180351 | 74 | 2 | 1.7 | 4.3 | 0.00 | 0.00 | 0.00 | 33 | 1012.0 |
| 20260504175849 | 74 | 284 | 4.3 | 5.2 | 0.00 | 0.00 | 0.00 | 34 | 1012.0 |
| 20260504175345 | 73 | 303 | 4.3 | 7.0 | 0.00 | 0.00 | 0.00 | 37 | 1012.2 |
| 20260504174843 | 73 | 280 | 6.1 | 7.0 | 0.00 | 0.00 | 0.00 | 38 | 1012.1 |
| 20260504174341 | 74 | 108 | 1.7 | 1.7 | 0.00 | 0.00 | 0.00 | 35 | 1012.0 |
| 20260504173837 | 73 | 292 | 3.5 | 5.2 | 0.00 | 0.00 | 0.00 | 38 | 1012.2 |
| 20260504173334 | 73 | 285 | 4.3 | 7.0 | 0.00 | 0.00 | 0.00 | 35 | 1012.4 |
| 20260504172831 | 73 | 62 | 0.9 | 1.7 | 0.00 | 0.00 | 0.00 | 35 | 1012.6 |
| 20260504172328 | 73 | 11 | 1.7 | 1.7 | 0.00 | 0.00 | 0.00 | 37 | 1012.4 |
| 20260504171824 | 72 | 25 | 0.9 | 0.9 | 0.00 | 0.00 | 0.00 | 36 | 1012.3 |
| 20260504171321 | 72 | 279 | 4.3 | 5.2 | 0.00 | 0.00 | 0.00 | 40 | 1012.7 |
| 20260504170818 | 72 | 297 | 2.6 | 2.6 | 0.00 | 0.00 | 0.00 | 38 | 1012.6 |
| 20260504170315 | 71 | 285 | 2.6 | 6.1 | 0.00 | 0.00 | 0.00 | 37 | 1012.4 |
| 20260504160233 | 70 | 333 | 2.6 | 4.3 | 0.00 | 0.00 | 0.00 | 44 | 1013.3 |
| 20260504150659 | 68 | 297 | 4.3 | 5.2 | 0.00 | 0.00 | 0.00 | 45 | 1013.7 |
| 20260504150155 | 67 | 281 | 5.2 | 5.2 | 0.00 | 0.00 | 0.00 | 46 | 1013.8 |
| 20260504141124 | 65 | 301 | 7.8 | 9.6 | 0.00 | 0.00 | 0.00 | 55 | 1013.9 |
| 20260504140621 | 64 | 310 | 3.5 | 6.1 | 0.00 | 0.00 | 0.00 | 57 | 1013.8 |
| 20260504140117 | 64 | 292 | 2.6 | 4.3 | 0.00 | 0.00 | 0.00 | 57 | 1014.2 |
| 20260504130545 | 57 | 8 | 1.7 | 4.3 | 0.00 | 0.00 | 0.00 | 70 | 1013.9 |
| 20260504110433 | 48 | 53 | 0.0 | 0.0 | 0.00 | 0.00 | 0.00 | 91 | 1013.9 |
| 20260504100349 | 48 | 52 | 0.0 | 0.0 | 0.00 | 0.00 | 0.00 | 89 | 1013.5 |
| 20260504081742 | 48 | 52 | 0.0 | 0.0 | 0.00 | 0.00 | 0.00 | 86 | 1013.2 |
| 20260504081239 | 48 | 52 | 0.0 | 0.0 | 0.00 | 0.00 | 0.00 | 87 | 1013.2 |
| 20260504080735 | 48 | 52 | 0.0 | 0.0 | 0.00 | 0.00 | 0.00 | 87 | 1013.1 |
| 20260504080232 | 48 | 52 | 0.0 | 0.0 | 0.00 | 0.00 | 0.00 | 87 | 1013.2 |
| 20260504070159 | 48 | 52 | 0.0 | 0.0 | 0.00 | 0.00 | 0.00 | 90 | 1013.2 |
| 20260504060120 | 51 | 44 | 0.0 | 0.0 | 0.00 | 0.00 | 0.00 | 89 | 1013.2 |
| 20260504050548 | 52 | 41 | 0.0 | 0.0 | 0.00 | 0.00 | 0.00 | 88 | 1013.3 |
| 20260504045542 | 52 | 41 | 0.0 | 0.9 | 0.00 | 0.00 | 0.00 | 88 | 1013.5 |
| 20260504045037 | 52 | 41 | 0.0 | 0.0 | 0.00 | 0.00 | 0.00 | 88 | 1013.4 |
| 20260504044535 | 52 | 41 | 0.0 | 0.0 | 0.00 | 0.00 | 0.00 | 88 | 1013.3 |
| 20260504044032 | 52 | 41 | 0.0 | 0.0 | 0.00 | 0.00 | 0.00 | 88 | 1013.5 |
| 20260504043529 | 53 | 41 | 0.0 | 0.0 | 0.00 | 0.00 | 0.00 | 88 | 1013.5 |
| 20260504043026 | 53 | 41 | 0.0 | 0.0 | 0.00 | 0.00 | 0.00 | 88 | 1013.5 |
| 20260504042523 | 53 | 41 | 0.0 | 0.0 | 0.00 | 0.00 | 0.00 | 88 | 1013.3 |
| 20260504042020 | 53 | 41 | 0.0 | 0.0 | 0.00 | 0.00 | 0.00 | 88 | 1013.3 |
| 20260504041516 | 53 | 41 | 0.0 | 0.0 | 0.00 | 0.00 | 0.00 | 87 | 1013.4 |
| 20260504041012 | 54 | 41 | 0.0 | 0.0 | 0.00 | 0.00 | 0.00 | 87 | 1013.4 |
| 20260504040510 | 54 | 41 | 0.0 | 0.0 | 0.00 | 0.00 | 0.00 | 87 | 1013.2 |
| 20260504040006 | 54 | 41 | 0.0 | 0.0 | 0.00 | 0.01 | 0.01 | 87 | 1013.3 |
| 20260504035503 | 54 | 41 | 0.0 | 0.0 | 0.00 | 0.01 | 0.01 | 87 | 1013.4 |
| 20260504034959 | 54 | 41 | 0.0 | 0.0 | 0.00 | 0.01 | 0.01 | 87 | 1013.2 |
| 20260504034457 | 54 | 41 | 0.0 | 0.0 | 0.00 | 0.01 | 0.01 | 87 | 1013.4 |
| 20260504033954 | 54 | 41 | 0.0 | 0.0 | 0.00 | 0.01 | 0.01 | 86 | 1013.3 |
| 20260504033452 | 54 | 41 | 0.0 | 0.0 | 0.00 | 0.01 | 0.01 | 86 | 1013.2 |
| 20260504032949 | 55 | 41 | 0.0 | 0.0 | 0.00 | 0.01 | 0.01 | 86 | 1013.5 |
| 20260504032446 | 55 | 41 | 0.0 | 0.0 | 0.00 | 0.01 | 0.01 | 86 | 1013.1 |
| 20260504031942 | 55 | 41 | 0.0 | 0.0 | 0.00 | 0.01 | 0.01 | 86 | 1013.3 |
| 20260504031439 | 55 | 41 | 0.0 | 0.0 | 0.00 | 0.01 | 0.01 | 86 | 1013.1 |